Location: Blienschwiller
(48.3416°N, 7.4182°E)
Time: 16:41:28
(UTC+00:00)

GEOS 3 Rocket - Pass Details

Date: 18 February 2020
Orbit: 778 x 841 km, 115.0° (Epoch: 29 March)

Event Time Altitude Azimuth Distance (km) Brightness Sun altitude
Rises 05:25:49 0° 38° (NE) 3,358 7.3 -11.9°
Reaches altitude 10° 05:28:12 10° 32° (NNE) 2,432 6.5 -11.5°
Maximum altitude 05:33:12 44° 321° (NW) 1,133 4.1 -10.6°
Drops below altitude 10° 05:38:14 10° 251° (WSW) 2,450 5.6 -9.8°
Enters shadow 05:38:31 - 250° (WSW) 2,561 5.7 -9.8°
